Regional Weather Roundup
Issued by NWS

Home | Current Version | Previous Version | Text Only | Print | Product List | Glossary On
Versions: 1 2 3 4 5 6 7 8 9 10 11 12 13 14 15 16 17 18 19 20 21 22 23 24 25 26 27 28 29 30 31 32 33 34 35 36 37 38 39 40 41 42 43 44 45 46 47 48 49 50
000
ASUS46 KSTO 240815
RWRCA

NORTHERN AND CENTRAL CA REGIONAL WEATHER ROUNDUP
NATIONAL WEATHER SERVICE SACRAMENTO CA
100 AM PDT SAT JUN 24 2017

NOTE: FAIR INDICATES FEW OR NO CLOUDS BELOW 12,000 FEET WITH NO
SIGNIFICANT WEATHER AND/OR OBSTRUCTIONS TO VISIBILITY.

CAZ001-003-240900-
NORTHWEST AREA

CITY           SKY/WX    TMP DP  RH WIND       PRES   REMARKS
CRESCENT CITY  CLEAR     51  49  92 CALM      29.96
UKIAH          CLEAR     70  56  61 S6        29.91S
$$

CAZ006-505>513-240900-
BAY AREA

CITY           SKY/WX    TMP DP  RH WIND       PRES   REMARKS
SANTA ROSA     CLOUDY    56  54  93 S5        29.94F
SAN RAFAEL     N/A       62  MM  MM MISG
NAPA           CLEAR     60  56  86 W15       29.93
CONCORD        CLEAR     63  54  72 W7        29.91S
OAKLAND CITY   N/A      MM  MM  MM MISG
OAKLAND        CLOUDY    60  57  89 W13       29.96S
SAN FRAN CITY  N/A       57  MM  97 MISG
SAN FRAN ARPT  PTCLDY    58  55  90 NW10      29.95S
LIVERMORE      CLEAR     62  55  77 W9        29.91
HAYWARD        CLOUDY    60  53  77 NW9       29.95S
REDWOOD CITY   N/A       63  MM  82 MISG
MOFFETT ARPT   CLOUDY    63  59  87 N9        29.95
SAN JOSE ARPT  CLEAR     62  58  86 NW7       29.95
$$
CAZ034-037-514>518-240900-
CENTRAL COAST

CITY           SKY/WX    TMP DP  RH WIND       PRES   REMARKS
WATSONVILLE    CLOUDY    57  57 100 CALM      29.96F
SALINAS        CLOUDY    58  56  93 W5        29.96S
MONTEREY       CLOUDY    57  56  96 W3        29.97S
SAN LUIS OBISP CLOUDY    57  56  96 NW7       29.92F
SANTA MARIA    CLOUDY    55  55 100 W5        29.94S FOG
$$
CAZ015-016-240900-
NORTHERN SACRAMENTO VALLEY

CITY           SKY/WX    TMP DP  RH WIND       PRES   REMARKS
REDDING        CLEAR     81  58  45 CALM      29.85S
RED BLUFF      CLEAR     78  61  55 NW6       29.84R
OROVILLE       CLEAR     85  65  51 S3        29.84R
$$
CAZ016>018-240900-
SOUTHERN SACRAMENTO VALLEY

CITY           SKY/WX    TMP DP  RH WIND       PRES   REMARKS
AUBURN         CLEAR     81  57  44 E3        29.92S
BEALE AFB      CLEAR     80  62  55 SE7       29.81S
LINCOLN        FAIR      77  55  47 SE7       29.83S
MARYSVILLE     CLEAR     76  61  59 S7        29.83R
SAC INTL ARPT  CLEAR     69  58  67 SE13      29.83
MATHER AIRPORT NOT AVBL
DOWNTOWN SAC   N/A       69  MM  MM MISG
SAC EXEC ARPT  CLEAR     65  58  78 S6        29.85R
VACAVILLE      CLEAR     74  56  53 SW7       29.83S
TRAVIS AFB     CLEAR     60  54  80 SW28G37   29.82S
$$
CAZ019>021-240900-
SAN JOAQUIN VALLEY

CITY           SKY/WX    TMP DP  RH WIND       PRES   REMARKS
STOCKTON       CLEAR     72  56  57 N7        29.84S
MODESTO        CLEAR     76  57  51 N8        29.82F
MERCED         CLEAR     78  56  46 N12       29.82
LEMOORE        CLEAR     81  56  42 N9        29.82R HAZE
FRESNO         MOCLDY    82  61  48 NW12      29.82S
HANFORD        CLEAR     82  63  52 NW8       29.82S
PORTERVILLE      N/A     80  67  64 S5        29.84R
BAKERSFIELD    PTCLDY    88  63  43 NW5       29.84R
$$
CAZ011-012-071-240900-
NORTHERN MOUNTAINS

CITY           SKY/WX    TMP DP  RH WIND       PRES   REMARKS
YREKA          CLEAR     69  43  38 NE10      30.06R
MOUNT SHASTA   CLEAR     59  47  64 CALM      30.10S
ALTURAS        CLEAR     61  44  53 CALM      30.18S
$$
CAZ011-012-071-240900-
SIERRA NEVADA MTNS

CITY           SKY/WX    TMP DP  RH WIND       PRES   REMARKS
BLUE CANYON    CLEAR     77  50  38 NE5       30.22F
TRUCKEE        CLEAR     57  52  82 CALM      30.29S
TAHOE VLY ARPT CLEAR     59  50  72 S6        30.30S
MAMMOTH LAKES  FAIR      61  38  41 W7        30.37S
$$




USA.gov is the U.S. government's official web portal to all federal, state and local government web resources and services.